DLH12E ENVA-EDDM

Flight info

Callsign DLH12E
Flight time N/A
Altitude 37000
Route UTUNA DCT TUTBI DCT INVOL DCT LOMPU DCT SODRO/N0411F310 T703 LULAR/N0408F300 T105 LANDU LANDU2A
Aircraft A320/M-SDE3FGHIRWY/LB1

Departure

Time 2026-04-27 07:36
Airport Trondheim Airport, Værnes (ENVA)

Arrival

Time N/A
Airport Munich Airport (EDDM)
Time Latitude Longitude Altitude Speed Heading
2026-04-27 07:20 63.45501 10.91901 50 ft 0 kts 181°
2026-04-27 07:28 63.45506 10.91901 49 ft 2 kts 181°
2026-04-27 07:28 63.45523 10.91902 49 ft 3 kts 181°
2026-04-27 07:29 63.45541 10.91903 49 ft 3 kts 181°
2026-04-27 07:29 63.45558 10.91903 49 ft 3 kts 181°
2026-04-27 07:29 63.45576 10.91905 49 ft 2 kts 150°
2026-04-27 07:29 63.45586 10.91875 46 ft 3 kts 76°
2026-04-27 07:30 63.45576 10.91844 44 ft 3 kts 20°
2026-04-27 07:30 63.45559 10.91833 44 ft 3 kts
2026-04-27 07:30 63.45544 10.91831 47 ft 0 kts
2026-04-27 07:31 63.45540 10.91831 47 ft 1 kts
2026-04-27 07:31 63.45546 10.91831 46 ft 1 kts
2026-04-27 07:32 63.45557 10.91833 44 ft 4 kts
2026-04-27 07:32 63.45620 10.91839 47 ft 1 kts
2026-04-27 07:32 63.45603 10.91837 46 ft 3 kts
2026-04-27 07:32 63.45588 10.91833 46 ft 0 kts 38°
2026-04-27 07:33 63.45597 10.91863 47 ft 9 kts 64°
2026-04-27 07:33 63.45604 10.92026 50 ft 12 kts 91°
2026-04-27 07:33 63.45597 10.92230 52 ft 15 kts 94°
2026-04-27 07:33 63.45593 10.92528 55 ft 25 kts 90°
2026-04-27 07:34 63.45595 10.93000 53 ft 35 kts 90°
2026-04-27 07:34 63.45595 10.93413 57 ft 20 kts 90°
2026-04-27 07:34 63.45593 10.93535 62 ft 14 kts 90°
2026-04-27 07:34 63.45614 10.93868 59 ft 27 kts 59°
2026-04-27 07:35 63.45725 10.94067 66 ft 15 kts 355°
2026-04-27 07:35 63.45751 10.93995 64 ft 0 kts 283°
2026-04-27 07:35 63.45753 10.93966 60 ft 0 kts 277°
2026-04-27 07:35 63.45757 10.93848 64 ft 32 kts 271°
2026-04-27 07:36 63.45759 10.92781 56 ft 101 kts 270°
2026-04-27 07:36 63.45751 10.90785 66 ft 151 kts 269°
2026-04-27 07:36 63.45767 10.88382 515 ft 163 kts 270°
2026-04-27 07:36 63.45786 10.85670 841 ft 177 kts 272°
2026-04-27 07:37 63.45826 10.82887 1301 ft 187 kts 270°
2026-04-27 07:37 63.45826 10.79832 1485 ft 204 kts 270°
2026-04-27 07:37 63.45814 10.76569 1937 ft 214 kts 271°
2026-04-27 07:37 63.45800 10.73358 3068 ft 194 kts 272°
2026-04-27 07:38 63.45786 10.70550 4042 ft 170 kts 274°